Weather History for KISP - February, 2013

Change the Weather History Date:

Sunday, February 24, 2013

  Actual Average Record
Temperature  
Mean Temperature 39 °F 34 °F  
Max Temperature 45 °F 42 °F 59 °F (2000)
Min Temperature 32 °F 27 °F 3 °F (2015)
Degree Days  
Heating Degree Days 26 31  
Month to date heating degree days 819 782  
Since 1 July heating degree days 3516 3774  
Cooling Degree Days 0 0  
Month to date cooling degree days 0 0  
Year to date cooling degree days 0 0  
Moisture  
Dew Point 31 °F    
Average Humidity 75    
Maximum Humidity 92    
Minimum Humidity 57    
Precipitation  
Precipitation T in 0.13 in 1.31 in (1988)
Month to date precipitation 4.51 2.71  
Year to date precipitation 6.73 6.35  
Snow  
Snow 0.20 in 0.20 in 3.20 in (2005)
Month to date snowfall 31.4 6.1  
Since 1 July snowfall 39.5 18.7  
Snow Depth 1.00 in    
Sea Level Pressure  
Sea Level Pressure 29.78 in    
Wind  
Wind Speed 13 mph (NNW)    
Max Wind Speed 22 mph    
Max Gust Speed 29 mph    
Visibility 8 miles    
Events Snow    
T = Trace of Precipitation, MM = Missing Value Source: NWS Daily Summary

Daily Weather History Graph

Daily Weather History Graph

Search for Another Location

Airport or City:

Trip Planner

Search our weather history database for the weather conditions in past years. The results will help you decide how hot, cold, wet, or windy it might be!

Date:

Astronomy

Feb. 24, 2013 Rise Set
Actual Time 6:33 AM EST 5:38 PM EST
Civil Twilight 6:05 AM EST 6:05 PM EST
Nautical Twilight 5:34 AM EST 6:37 PM EST
Astronomical Twilight 5:02 AM EST 7:09 PM EST
Moon 4:46 PM EST (2/24) 5:29 AM EST (2/24)
Length of Visible Light 11h 59m
Length of Day
11h 04m
Waxing Gibbous, 99% of the Moon is Illuminated
Feb 24
Waxing Gibbous
Feb 25
Full
Mar 4
Last Quarter
Mar 11
New
Mar 19
First Quarter

Hourly Weather History & Observations

Time (EST) Temp. Windchill Dew Point Humidity Pressure Visibility Wind Dir Wind Speed Gust Speed Precip Events Conditions
12:41 AM 35.6 °F 24.8 °F 33.8 °F 93% 29.76 in 4.0 mi NE 19.6 mph - N/A   Overcast
12:56 AM 36.0 °F 26.3 °F 34.0 °F 93% 29.75 in 5.0 mi NE 16.1 mph - N/A   Overcast
1:56 AM 36.0 °F 28.0 °F 34.0 °F 93% 29.75 in 5.0 mi NNE 11.5 mph - N/A   Overcast
2:56 AM 35.1 °F 26.9 °F 33.1 °F 92% 29.73 in 8.0 mi North 11.5 mph - N/A   Overcast
3:56 AM 35.1 °F 26.9 °F 33.1 °F 92% 29.72 in 7.0 mi North 11.5 mph - N/A   Overcast
4:56 AM 35.1 °F 26.4 °F 33.1 °F 92% 29.74 in 9.0 mi NNW 12.7 mph - N/A   Overcast
5:56 AM 35.1 °F 25.9 °F 33.1 °F 92% 29.71 in 10.0 mi North 13.8 mph - N/A   Overcast
6:56 AM 36.0 °F 28.5 °F 33.1 °F 89% 29.72 in 10.0 mi NNW 10.4 mph - N/A   Overcast
7:31 AM 35.6 °F 27.5 °F 33.8 °F 93% 29.72 in 10.0 mi North 11.5 mph - N/A   Overcast
7:56 AM 37.0 °F 29.3 °F 34.0 °F 89% 29.72 in 10.0 mi North 11.5 mph - N/A   Overcast
8:56 AM 39.0 °F 31.8 °F 34.0 °F 82% 29.72 in 10.0 mi NNW 11.5 mph - N/A   Overcast
9:56 AM 39.9 °F 32.1 °F 34.0 °F 79% 29.72 in 10.0 mi NNW 13.8 mph - N/A   Overcast
10:08 AM 39.2 °F 30.8 °F 33.8 °F 81% 29.72 in 10.0 mi NNW 15.0 mph - N/A   Overcast
10:56 AM 41.0 °F 33.9 °F 34.0 °F 76% 29.72 in 10.0 mi NNW 12.7 mph - N/A   Overcast
11:56 AM 42.1 °F 34.5 °F 35.1 °F 76% 29.72 in 10.0 mi NW 15.0 mph - N/A   Mostly Cloudy
12:56 PM 43.0 °F 36.8 °F 34.0 °F 71% 29.71 in 10.0 mi NNW 11.5 mph - N/A   Overcast
1:56 PM 43.0 °F 35.7 °F 34.0 °F 71% 29.70 in 10.0 mi NW 15.0 mph 24.2 mph N/A   Overcast
2:56 PM 44.1 °F 37.1 °F 34.0 °F 68% 29.71 in 10.0 mi NNW 15.0 mph 21.9 mph N/A   Overcast
3:53 PM 44.6 °F 38.4 °F 33.8 °F 66% 29.72 in 10.0 mi NNW 12.7 mph - N/A   Mostly Cloudy
3:56 PM 44.1 °F 37.7 °F 33.1 °F 65% 29.72 in 10.0 mi NNW 12.7 mph - N/A   Mostly Cloudy
4:56 PM 42.1 °F 34.5 °F 28.9 °F 60% 29.75 in 10.0 mi NW 15.0 mph 24.2 mph N/A   Overcast
5:51 PM 39.2 °F 30.8 °F 26.6 °F 61% 29.79 in 10.0 mi NW 15.0 mph - N/A   Overcast
5:56 PM 39.9 °F 32.9 °F 26.1 °F 58% 29.79 in 10.0 mi NW 11.5 mph - N/A   Overcast
6:56 PM 39.0 °F 31.0 °F 26.1 °F 60% 29.83 in 10.0 mi NW 13.8 mph 20.7 mph N/A   Overcast
7:56 PM 35.1 °F 25.5 °F 27.0 °F 72% 29.86 in 10.0 mi NW 15.0 mph 24.2 mph N/A   Overcast
8:56 PM 34.0 °F 24.2 °F 26.1 °F 73% 29.89 in 7.0 mi NW 15.0 mph 23.0 mph 0.00 in Snow Light Snow
9:15 PM 33.8 °F 24.8 °F 26.6 °F 75% 29.90 in 3.0 mi NW 12.7 mph - 0.00 in Snow Light Snow
9:28 PM 33.8 °F 24.3 °F 28.4 °F 81% 29.90 in 2.0 mi NW 13.8 mph 20.7 mph 0.00 in Snow Light Snow
9:49 PM 33.8 °F 24.3 °F 28.4 °F 81% 29.90 in 2.0 mi NNW 13.8 mph - 0.00 in Snow Light Snow
9:56 PM 33.1 °F 23.4 °F 28.0 °F 82% 29.91 in 2.0 mi NNW 13.8 mph - 0.00 in Snow Light Snow
10:49 PM 32.0 °F 22.5 °F 28.4 °F 87% 29.90 in 7.0 mi NW 12.7 mph - 0.00 in Snow Light Snow
10:56 PM 32.0 °F 22.5 °F 28.0 °F 85% 29.91 in 9.0 mi NW 12.7 mph - 0.00 in   Mostly Cloudy
11:56 PM 33.1 °F 25.5 °F 27.0 °F 78% 29.92 in 10.0 mi NW 9.2 mph - N/A   Mostly Cloudy